Location: Newark
(44.2003°N, 3.2583°E)
Time: 13:29:51
(UTC+00:00)

SR - Pass Details

Date: 22 October 2019
Orbit: 574 x 882 km, 66.7° (Epoch: 14 November)

Event Time Altitude Azimuth Distance (km) Brightness Sun altitude
Rises 23:22:10 0° 269° (W) 3,162 - -57.0°
Reaches altitude 10° 23:25:28 10° 292° (WNW) 2,310 - -57.0°
Maximum altitude 23:28:36 16° 328° (NNW) 2,009 - -57.0°
Drops below altitude 10° 23:31:52 10° 4° (N) 2,429 - -57.0°
Sets 23:35:30 0° 26° (NNE) 3,418 - -57.0°
